KE8GJZ-1 Weather Reports


time (UTC)temp
C
wind
direction
speed
KPH
gust
KPH
rain 1hr
cm
rain 24hr
cm
rain mn
cm
humidity
%
barometer
mb
20260502222212 8 290 0.0 1.6 0.00 0.00 0.00 44 1014.3
20260502221709 8 291 0.0 0.0 0.00 0.00 0.00 45 1014.3
20260502221205 8 250 0.0 0.0 0.00 0.00 0.00 44 1014.2
20260502220701 8 158 1.6 3.2 0.00 0.00 0.00 45 1014.2
20260502220158 8 55 0.0 1.6 0.00 0.00 0.00 44 1014.4
20260502215655 8 200 0.0 1.6 0.00 0.00 0.00 43 1014.4
20260502215152 8 60 0.0 0.0 0.00 0.00 0.00 43 1014.1
20260502214649 8 262 0.0 0.0 0.00 0.00 0.00 44 1014.4
20260502214146 8 299 0.0 1.6 0.00 0.00 0.00 45 1014.3
20260502213643 8 159 3.2 3.2 0.00 0.00 0.00 43 1014.5
20260502213140 8 290 1.6 3.2 0.00 0.00 0.00 42 1014.3
20260502212639 9 123 0.0 1.6 0.00 0.00 0.00 41 1014.4
20260502212137 9 155 1.6 1.6 0.00 0.00 0.00 43 1014.4
20260502211632 8 44 0.0 1.6 0.00 0.00 0.00 43 1014.0
20260502211130 9 304 1.6 1.6 0.00 0.00 0.00 42 1014.3
20260502210627 9 190 0.0 0.0 0.00 0.00 0.00 44 1014.6
20260502210124 8 299 0.0 0.0 0.00 0.00 0.00 44 1014.4
20260502205621 8 194 0.0 0.0 0.00 0.00 0.00 43 1014.3
20260502205117 9 105 0.0 0.0 0.00 0.00 0.00 42 1014.2
20260502204614 9 192 0.0 0.0 0.00 0.00 0.00 42 1014.6
20260502204112 9 326 1.6 1.6 0.00 0.00 0.00 42 1014.5
20260502203609 8 329 1.6 1.6 0.00 0.00 0.00 43 1014.4
20260502203106 8 177 0.0 0.0 0.00 0.00 0.00 42 1014.6
20260502202602 8 165 1.6 1.6 0.00 0.00 0.00 42 1014.7
20260502202100 8 87 1.6 1.6 0.00 0.00 0.00 44 1014.8
20260502201556 8 181 0.0 0.0 0.00 0.00 0.00 43 1014.8
20260502201053 8 330 0.0 1.6 0.00 0.00 0.00 44 1015.0
20260502200548 8 150 3.2 3.2 0.00 0.00 0.00 42 1014.9
20260502200047 9 143 0.0 1.6 0.00 0.00 0.00 41 1014.8
20260502195544 10 129 0.0 1.6 0.00 0.00 0.00 41 1015.1
20260502195040 9 252 0.0 1.6 0.00 0.00 0.00 41 1014.8
20260502194537 9 240 0.0 1.6 0.00 0.00 0.00 42 1015.0
20260502194033 9 257 3.2 3.2 0.00 0.00 0.00 40 1015.0
20260502193530 9 137 3.2 3.2 0.00 0.00 0.00 39 1015.1
20260502193027 10 116 0.0 1.6 0.00 0.00 0.00 38 1015.1
20260502192522 8 190 0.0 1.6 0.00 0.00 0.00 45 1015.1
20260502192020 8 318 1.6 1.6 0.00 0.00 0.00 42 1015.2
20260502191517 9 184 0.0 0.0 0.00 0.00 0.00 42 1015.4
20260502191015 10 174 0.0 1.6 0.00 0.00 0.00 41 1015.3
20260502190512 9 294 3.2 8.0 0.00 0.00 0.00 42 1015.4
20260502190009 8 247 0.0 0.0 0.00 0.00 0.00 41 1015.6
20260502185504 9 341 1.6 1.6 0.00 0.00 0.00 41 1015.1
20260502185001 10 294 0.0 1.6 0.00 0.00 0.00 38 1015.4
20260502184456 10 255 1.6 1.6 0.00 0.00 0.00 40 1015.4
20260502183953 10 119 1.6 3.2 0.00 0.00 0.00 39 1015.3
20260502183449 10 129 0.0 0.0 0.00 0.00 0.00 36 1015.4
20260502182944 11 287 1.6 3.2 0.00 0.00 0.00 37 1015.3
20260502182440 10 334 1.6 4.8 0.00 0.00 0.00 42 1015.6
20260502181936 8 187 0.0 1.6 0.00 0.00 0.00 42 1015.7
20260502181435 9 294 1.6 1.6 0.00 0.00 0.00 40 1015.5
20260502180933 10 150 1.6 1.6 0.00 0.00 0.00 38 1015.6
20260502180430 10 281 1.6 1.6 0.00 0.00 0.00 41 1015.9
20260502170349 10 246 0.0 1.6 0.00 0.00 0.00 38 1016.0
20260502164336 10 175 1.6 3.2 0.00 0.00 0.00 39 1016.2
20260502163832 10 304 0.0 0.0 0.00 0.00 0.00 37 1016.2
20260502163328 10 294 1.6 1.6 0.00 0.00 0.00 39 1016.2
20260502162826 10 279 0.0 1.6 0.00 0.00 0.00 38 1016.2
20260502162322 8 115 1.6 3.2 0.00 0.00 0.00 41 1016.2
20260502161820 8 289 0.0 0.0 0.00 0.00 0.00 44 1016.3
20260502161315 8 162 3.2 3.2 0.00 0.00 0.00 43 1016.4
20260502160814 8 234 1.6 3.2 0.00 0.00 0.00 43 1016.3
20260502160312 8 168 3.2 4.8 0.00 0.00 0.00 41 1016.3
20260502152235 8 246 0.0 0.0 0.00 0.00 0.00 47 1016.2
20260502151733 7 287 1.6 3.2 0.00 0.00 0.00 48 1016.2
20260502151230 7 244 0.0 0.0 0.00 0.00 0.00 46 1016.3
20260502150727 7 76 3.2 3.2 0.00 0.00 0.00 46 1016.1
20260502150224 7 304 3.2 4.8 0.00 0.00 0.00 47 1016.3
20260502130613 3 312 0.0 0.0 0.00 0.00 0.00 65 1016.5
20260502130110 3 180 1.6 1.6 0.00 0.00 0.00 68 1016.4
20260502123556 2 159 0.0 0.0 0.00 0.00 0.00 73 1016.1
20260502123052 2 271 0.0 0.0 0.00 0.00 0.00 73 1016.2
20260502122548 2 253 0.0 0.0 0.00 0.00 0.00 75 1016.3
20260502122046 2 278 0.0 0.0 0.00 0.00 0.00 76 1016.3
20260502121543 2 231 0.0 0.0 0.00 0.00 0.00 77 1016.0
20260502121041 1 239 0.0 0.0 0.00 0.00 0.00 79 1016.3
20260502120537 1 263 0.0 0.0 0.00 0.00 0.00 80 1016.1
20260502115532 0 281 0.0 0.0 0.00 0.00 0.00 82 1016.1
20260502115027 0 223 0.0 0.0 0.00 0.00 0.00 85 1016.1
20260502114524 0 300 0.0 0.0 0.00 0.00 0.00 86 1016.1
20260502114021 0 251 0.0 0.0 0.00 0.00 0.00 87 1016.2
20260502113518 0 269 0.0 0.0 0.00 0.00 0.00 88 1016.0
20260502113017 0 256 0.0 0.0 0.00 0.00 0.00 89 1016.1
20260502112515 0 301 0.0 0.0 0.00 0.00 0.00 89 1015.9
20260502112012 0 293 0.0 0.0 0.00 0.00 0.00 90 1015.8
20260502111509 0 302 0.0 0.0 0.00 0.00 0.00 90 1016.0
20260502111006 0 266 0.0 0.0 0.00 0.00 0.00 90 1015.8
20260502110504 0 269 0.0 0.0 0.00 0.00 0.00 90 1015.7
20260502110001 0 266 0.0 0.0 0.00 0.00 0.00 90 1015.9
20260502105459 0 268 0.0 0.0 0.00 0.00 0.00 89 1015.7
20260502104956 0 264 0.0 0.0 0.00 0.00 0.00 89 1015.7
20260502104453 0 263 0.0 0.0 0.00 0.00 0.00 89 1015.7
20260502103950 0 262 0.0 0.0 0.00 0.00 0.00 88 1015.8
20260502103448 0 266 0.0 0.0 0.00 0.00 0.00 88 1015.8
20260502102944 0 270 0.0 0.0 0.00 0.00 0.00 87 1015.8
20260502102442 0 271 0.0 0.0 0.00 0.00 0.00 87 1015.5
20260502101938 0 271 0.0 0.0 0.00 0.00 0.00 87 1015.7
20260502101437 0 271 0.0 0.0 0.00 0.00 0.00 86 1015.5
20260502100935 0 299 0.0 0.0 0.00 0.00 0.00 86 1015.7
20260502100434 0 298 0.0 0.0 0.00 0.00 0.00 85 1015.8
20260502091408 0 258 0.0 0.0 0.00 0.00 0.00 80 1015.4
20260502090905 0 270 0.0 0.0 0.00 0.00 0.00 79 1015.3
20260502090402 1 296 0.0 0.0 0.00 0.00 0.00 78 1015.4
20260502071257 3 281 0.0 0.0 0.00 0.00 0.00 71 1014.8
20260502070755 3 306 0.0 0.0 0.00 0.00 0.00 69 1014.9
20260502070252 3 265 0.0 0.0 0.00 0.00 0.00 69 1014.8
20260502065751 3 237 0.0 0.0 0.00 0.00 0.00 67 1014.7
20260502065249 3 237 0.0 0.0 0.00 0.00 0.00 68 1014.8
20260502064747 3 237 0.0 0.0 0.00 0.00 0.00 68 1015.1
20260502064244 3 301 0.0 0.0 0.00 0.00 0.00 67 1015.0
20260502063741 3 301 0.0 0.0 0.00 0.00 0.00 66 1015.1
20260502063240 3 301 0.0 0.0 0.00 0.00 0.00 66 1015.1
20260502062736 3 301 0.0 0.0 0.00 0.00 0.00 67 1015.2
20260502062234 3 301 0.0 0.0 0.00 0.00 0.00 67 1015.0
20260502061732 3 305 0.0 0.0 0.00 0.00 0.00 68 1015.2
20260502061229 3 301 0.0 0.0 0.00 0.00 0.00 69 1015.1
20260502060724 3 120 0.0 0.0 0.00 0.00 0.00 66 1015.4
20260502060220 3 250 0.0 0.0 0.00 0.00 0.00 69 1015.3
20260502055718 3 249 0.0 0.0 0.00 0.00 0.00 70 1015.1
20260502055216 3 255 0.0 0.0 0.00 0.00 0.00 70 1015.2
20260502054715 3 296 0.0 0.0 0.00 0.00 0.00 69 1015.3
20260502054212 3 296 0.0 0.0 0.00 0.00 0.00 69 1015.3
20260502053710 3 296 0.0 0.0 0.00 0.00 0.00 69 1015.3
20260502053207 3 296 0.0 0.0 0.00 0.00 0.00 68 1015.4
20260502052705 3 296 0.0 0.0 0.00 0.00 0.00 68 1015.1
20260502052203 3 91 0.0 0.0 0.00 0.00 0.00 68 1015.2
20260502051701 4 204 0.0 0.0 0.00 0.00 0.00 69 1015.3
20260502051159 4 275 0.0 0.0 0.00 0.00 0.00 69 1015.3
20260502050655 4 249 0.0 0.0 0.00 0.00 0.00 69 1015.3
20260502050151 4 238 0.0 0.0 0.00 0.00 0.00 70 1015.2
20260502045647 4 235 0.0 0.0 0.00 0.00 0.00 70 1015.3
20260502045145 4 231 0.0 0.0 0.00 0.00 0.00 70 1015.1
20260502044642 4 262 0.0 0.0 0.00 0.00 0.00 72 1015.0
20260502044138 4 236 0.0 0.0 0.00 0.00 0.00 70 1014.8
20260502043636 4 232 0.0 0.0 0.00 0.00 0.00 71 1015.2
20260502043133 4 235 0.0 0.0 0.00 0.00 0.00 71 1015.1
20260502042632 4 235 0.0 0.0 0.00 0.00 0.00 71 1014.9
20260502042130 4 232 0.0 0.0 0.00 0.00 0.00 71 1014.8
20260502041627 4 191 0.0 0.0 0.00 0.00 0.00 72 1014.7
20260502041124 4 286 0.0 0.0 0.00 0.00 0.00 72 1014.9
20260502040621 3 248 0.0 0.0 0.00 0.00 0.00 75 1014.8
20260502040119 3 191 0.0 1.6 0.00 0.00 0.00 74 1015.0
20260502035614 3 253 0.0 0.0 0.00 0.00 0.00 76 1014.6
20260502035112 3 253 0.0 0.0 0.00 0.00 0.00 77 1014.6
20260502034609 3 254 0.0 0.0 0.00 0.00 0.00 77 1014.6
20260502034108 3 253 0.0 0.0 0.00 0.00 0.00 78 1014.4
20260502033605 3 242 0.0 0.0 0.00 0.00 0.00 78 1014.7
20260502033103 3 240 0.0 0.0 0.00 0.00 0.00 80 1014.5
20260502032558 3 241 0.0 0.0 0.00 0.00 0.00 81 1014.6
20260502032055 3 233 0.0 0.0 0.00 0.00 0.00 80 1014.5
20260502031553 3 239 0.0 0.0 0.00 0.00 0.00 80 1014.5
20260502031050 3 286 0.0 0.0 0.00 0.00 0.00 79 1014.5
20260502030549 3 254 0.0 0.0 0.00 0.00 0.00 78 1014.5
20260502030047 3 253 0.0 0.0 0.00 0.00 0.00 77 1014.5
20260502025544 3 253 0.0 0.0 0.00 0.00 0.00 77 1014.5
20260502025042 3 253 0.0 0.0 0.00 0.00 0.00 75 1014.3
20260502024539 4 253 0.0 0.0 0.00 0.00 0.00 76 1014.4
20260502024038 4 253 0.0 0.0 0.00 0.00 0.00 76 1014.4
20260502023534 4 254 0.0 0.0 0.00 0.00 0.00 75 1014.3
20260502023032 4 254 0.0 0.0 0.00 0.00 0.00 73 1014.3
20260502022528 4 254 0.0 0.0 0.00 0.00 0.00 74 1014.3
20260502022026 4 263 0.0 0.0 0.00 0.00 0.00 73 1014.4
20260502021523 5 305 0.0 1.6 0.00 0.00 0.00 73 1014.4
20260502021020 4 228 0.0 1.6 0.00 0.00 0.00 72 1014.6
20260502020518 5 296 0.0 0.0 0.00 0.00 0.00 74 1014.2
20260502020015 5 308 0.0 0.0 0.00 0.00 0.00 73 1014.2
20260502015512 5 296 0.0 0.0 0.00 0.00 0.00 74 1014.2
20260502015008 5 305 0.0 0.0 0.00 0.00 0.00 74 1014.0
20260502014505 5 323 1.6 1.6 0.00 0.00 0.00 73 1014.1
20260502014002 5 78 0.0 1.6 0.00 0.00 0.00 73 1014.1
20260502013458 5 298 0.0 0.0 0.00 0.00 0.00 75 1014.0
20260502012954 5 296 0.0 0.0 0.00 0.00 0.00 75 1014.1
20260502012452 5 284 0.0 0.0 0.00 0.00 0.00 75 1013.9
20260502011950 5 244 0.0 0.0 0.00 0.00 0.00 76 1014.0
20260502011445 5 313 1.6 1.6 0.00 0.00 0.00 78 1014.1
20260502010942 5 226 0.0 0.0 0.00 0.00 0.00 78 1014.0
20260502010439 5 305 0.0 0.0 0.00 0.00 0.00 76 1014.0
20260502005935 5 261 0.0 0.0 0.00 0.00 0.00 74 1013.9
20260502005433 5 172 1.6 1.6 0.00 0.00 0.00 76 1013.9
20260502004932 5 259 0.0 0.0 0.00 0.00 0.00 75 1013.6
20260502004427 5 195 0.0 0.0 0.00 0.00 0.00 75 1013.9
20260502003924 6 261 0.0 0.0 0.00 0.00 0.00 73 1013.8
20260502003421 6 246 0.0 0.0 0.00 0.00 0.00 71 1013.5
20260502002917 6 234 0.0 0.0 0.00 0.00 0.00 71 1013.6
20260502002415 6 308 0.0 0.0 0.00 0.00 0.00 71 1013.6
20260502001912 6 274 0.0 0.0 0.00 0.00 0.00 69 1013.6
20260502001410 6 308 0.0 0.0 0.00 0.00 0.00 68 1013.4
20260502000907 6 308 0.0 0.0 0.00 0.00 0.00 67 1013.5
20260502000406 6 307 0.0 0.0 0.00 0.00 0.00 66 1013.5
20260501235901 6 307 0.0 0.0 0.00 0.00 0.00 65 1013.6
20260501235357 6 306 0.0 0.0 0.00 0.00 0.00 66 1013.5
20260501234852 6 244 0.0 0.0 0.00 0.00 0.00 66 1013.5
20260501234349 6 306 0.0 0.0 0.00 0.00 0.00 65 1013.3
20260501233848 6 61 0.0 0.0 0.00 0.00 0.00 66 1013.3
20260501233345 6 278 0.0 1.6 0.00 0.00 0.00 65 1013.2
20260501232840 7 216 0.0 0.0 0.00 0.00 0.00 63 1013.4
20260501232338 7 270 0.0 0.0 0.00 0.00 0.00 65 1013.2
20260501231836 7 296 0.0 0.0 0.00 0.00 0.00 65 1013.2
20260501231333 7 203 0.0 0.0 0.00 0.00 0.00 63 1013.3
20260501230832 7 234 0.0 0.0 0.00 0.00 0.00 63 1013.3
20260501230330 7 184 0.0 0.0 0.00 0.00 0.00 63 1013.1
20260501225827 7 294 0.0 0.0 0.00 0.00 0.00 62 1013.0
20260501225325 7 265 1.6 1.6 0.00 0.00 0.00 62 1013.1
20260501224821 7 296 0.0 1.6 0.00 0.00 0.00 62 1013.0
20260501224318 7 318 0.0 1.6 0.00 0.00 0.00 60 1012.9
20260501223814 7 264 0.0 0.0 0.00 0.00 0.00 59 1013.1
20260501223310 7 274 1.6 3.2 0.00 0.00 0.00 61 1013.2
20260501222806 8 240 0.0 0.0 0.00 0.00 0.00 61 1013.0